date,time,wsp,wdr,temp,humid
2016-01-01,00:00,3.4,52,25.8,58
2016-01-01,01:00,3.4,56,25.6,59
2016-01-01,02:00,3.8,66,24.6,63
2016-01-01,03:00,3.6,73,23.8,67
2016-01-01,04:00,3,83,23.2,70
2016-01-01,05:00,3.2,87,22.7,71
2016-01-01,06:00,3.9,96,22,73
2016-01-01,07:00,4.1,90,21.9,71
2016-01-01,08:00,4.2,80,22.9,66
2016-01-01,09:00,4.8,78,23.8,63
2016-01-01,10:00,4.3,79,24.7,60
2016-01-01,11:00,5.3,77,25.8,57
2016-01-01,12:00,5.2,75,26.7,54
2016-01-01,13:00,4.6,71,27.6,52
2016-01-01,14:00,4,74,28.1,51
2016-01-01,15:00,4.9,76,28.3,49
2016-01-01,16:00,4.6,74,28.5,48
2016-01-01,17:00,3.6,64,28.4,50
2016-01-01,18:00,3.2,35,27.9,53
2016-01-01,19:00,4,348,27,57
2016-01-01,20:00,4.2,346,26.7,57
2016-01-01,21:00,4.2,352,26.8,55
2016-01-01,22:00,4.1,0,26.1,59
2016-01-01,23:00,3.7,22,25.5,61
2016-01-02,00:00,3.6,24,25,62
2016-01-02,01:00,3.5,32,24.9,61
2016-01-02,02:00,3.7,21,24.3,63
2016-01-02,03:00,2.6,5,23.4,68
2016-01-02,04:00,2,4,22.8,72
2016-01-02,05:00,2.6,12,22.5,72
2016-01-02,06:00,2.9,20,22.1,72
2016-01-02,07:00,3,18,22,73
2016-01-02,08:00,1.4,35,23.2,69
2016-01-02,09:00,1.9,53,24.9,61
2016-01-02,10:00,1.5,80,26.5,55
2016-01-02,11:00,1.7,80,27.8,52
2016-01-02,12:00,1.5,98,28.9,47
2016-01-02,13:00,2.3,89,29.3,44
2016-01-02,14:00,2.6,86,29.4,43
2016-01-02,15:00,2.3,78,29.7,44
2016-01-02,16:00,3.2,67,29.3,45
2016-01-02,17:00,3.9,81,28.8,47
2016-01-02,18:00,3.2,78,28.3,49
2016-01-02,19:00,1.1,360,27.9,52
2016-01-02,20:00,2.7,351,27.6,50
2016-01-02,21:00,3,356,28,46
2016-01-02,22:00,3.6,352,28,43
2016-01-02,23:00,3.9,359,27.9,42
2016-01-03,00:00,4.3,3,27.6,44
2016-01-03,01:00,4.9,347,26.5,48
2016-01-03,02:00,4.7,356,26.1,49
2016-01-03,03:00,4.4,5,24.9,57
2016-01-03,04:00,2.2,30,23.9,64
2016-01-03,05:00,2.2,21,23.6,64
2016-01-03,06:00,2.2,13,23.3,65
2016-01-03,07:00,1.8,337,22.4,71
2016-01-03,08:00,1.6,335,22.6,72
2016-01-03,09:00,1,320,24.6,65
2016-01-03,10:00,0.5,88,27.2,55
2016-01-03,11:00,0.9,49,28.9,49
2016-01-03,12:00,1.2,95,30,44
2016-01-03,13:00,1.2,66,30.6,42
2016-01-03,14:00,1,64,31,41
2016-01-03,15:00,1.3,332,31.3,38
2016-01-03,16:00,1.6,334,30.8,42
2016-01-03,17:00,2,335,30.3,43
2016-01-03,18:00,2.3,332,29.3,47
2016-01-03,19:00,1.4,347,28.9,47
2016-01-03,20:00,1.1,351,28.6,48
2016-01-03,21:00,1.4,357,28.7,44
2016-01-03,22:00,1,360,28.3,47
2016-01-03,23:00,1.1,307,28,47
2016-01-04,00:00,2.5,283,27,54
2016-01-04,01:00,2.6,274,26.4,59
2016-01-04,02:00,2.4,281,25.8,61
2016-01-04,03:00,3.2,306,25,63
2016-01-04,04:00,2.8,343,24.5,63
2016-01-04,05:00,3.3,338,25.2,52
2016-01-04,06:00,2.7,345,25.2,52
2016-01-04,07:00,3.6,334,25.7,50
2016-01-04,08:00,2.4,326,25.8,55
2016-01-04,09:00,1.6,333,27.2,52
2016-01-04,10:00,2.2,332,28.7,46
2016-01-04,11:00,2.3,345,29.6,42
2016-01-04,12:00,2,352,30.4,41
2016-01-04,13:00,1.2,4,31.2,39
2016-01-04,14:00,1.7,34,31.6,38
2016-01-04,15:00,1.6,346,31.9,37
2016-01-04,16:00,1.8,317,31.8,38
2016-01-04,17:00,1.2,331,31.4,39
2016-01-04,18:00,1.8,100,30.7,44
2016-01-04,19:00,2.3,158,30.4,41
2016-01-04,20:00,2.4,157,30.1,43
2016-01-04,21:00,3.6,170,29.9,42
2016-01-04,22:00,3,216,29.5,42
2016-01-04,23:00,4.6,223,28.7,49
2016-01-05,00:00,4.8,230,27.5,61
2016-01-05,01:00,5.2,228,26.5,71
2016-01-05,02:00,4.9,224,26.5,67
2016-01-05,03:00,2.9,221,26.5,64
2016-01-05,04:00,2.9,236,26.3,60
2016-01-05,05:00,2.3,250,25.7,58
2016-01-05,06:00,1.4,294,25.4,57
2016-01-05,07:00,1,346,25.3,59
2016-01-05,08:00,1.5,9,25.5,64
2016-01-05,09:00,2.5,350,26.7,56
2016-01-05,10:00,2.7,343,27.9,48
2016-01-05,11:00,2.8,332,28.9,42
2016-01-05,12:00,2.3,341,29.9,38
2016-01-05,13:00,2.2,357,30.7,37
2016-01-05,14:00,1.9,319,31.2,37
2016-01-05,15:00,1.7,358,31.6,36
2016-01-05,16:00,1.2,352,31.8,36
2016-01-05,17:00,1.6,311,31.5,37
2016-01-05,18:00,0.9,346,30.7,39
2016-01-05,19:00,2.3,83,30.5,41
2016-01-05,20:00,1.2,132,29.8,46
2016-01-05,21:00,3.5,162,29.4,47
2016-01-05,22:00,4.2,185,28.7,52
2016-01-05,23:00,4.4,209,27.8,61
2016-01-06,00:00,3.9,226,27.1,65
2016-01-06,01:00,2.1,228,26.4,70
2016-01-06,02:00,1.9,231,25.9,74
2016-01-06,03:00,2.3,232,25.6,78
2016-01-06,04:00,0.6,316,24.7,80
2016-01-06,05:00,2.1,32,24,80
2016-01-06,06:00,3.4,55,23.2,81
2016-01-06,07:00,3,64,23.4,78
2016-01-06,08:00,1.6,75,24.5,75
2016-01-06,09:00,0.3,82,27.1,71
2016-01-06,10:00,0.8,202,29,65
2016-01-06,11:00,0.2,7,30.6,55
2016-01-06,12:00,0.9,14,30.9,51
2016-01-06,13:00,1.6,344,31.4,47
2016-01-06,14:00,1,358,31.8,44
2016-01-06,15:00,2.2,82,31.2,46
2016-01-06,16:00,2.4,91,31,47
2016-01-06,17:00,2.3,94,30.6,51
2016-01-06,18:00,1.6,100,30.3,51
2016-01-06,19:00,2.1,100,30.3,48
2016-01-06,20:00,1.5,152,29.8,53
2016-01-06,21:00,1.5,171,29.5,56
2016-01-06,22:00,2.8,225,28.7,63
2016-01-06,23:00,4.3,213,27.8,67
2016-01-07,00:00,4,218,27.4,71
2016-01-07,01:00,3.3,222,26.7,79
2016-01-07,02:00,3.2,234,26.1,84
2016-01-07,03:00,2.4,221,25.6,88
2016-01-07,04:00,1,215,25.5,88
2016-01-07,05:00,1.7,58,24.5,89
2016-01-07,06:00,2.9,53,23.4,91
2016-01-07,07:00,3.3,67,23.5,85
2016-01-07,08:00,1.9,69,24.4,84
2016-01-07,09:00,0.6,79,26.9,78
2016-01-07,10:00,0.3,250,29.3,66
2016-01-07,11:00,0.7,336,30.3,53
2016-01-07,12:00,1.5,319,30.6,52
2016-01-07,13:00,1.4,323,31,50
2016-01-07,14:00,2.1,346,30.8,50
2016-01-07,15:00,1.6,349,30.8,50
2016-01-07,16:00,2.6,338,30.5,50
2016-01-07,17:00,2.8,340,29.9,51
2016-01-07,18:00,1.8,335,29.6,49
2016-01-07,19:00,1.4,337,29.4,48
2016-01-07,20:00,1,197,29.4,46
2016-01-07,21:00,2.3,205,28.6,63
2016-01-07,22:00,1.7,209,28,72
2016-01-07,23:00,2.2,227,27.7,74
2016-01-08,00:00,2.6,232,27.3,78
2016-01-08,01:00,1.8,242,26.9,83
2016-01-08,02:00,2.3,225,26.7,86
2016-01-08,03:00,1.8,230,26.5,88
2016-01-08,04:00,0.6,330,26.1,89
2016-01-08,05:00,1.2,15,25.2,89
2016-01-08,06:00,1.6,32,24.9,88
2016-01-08,07:00,2.4,85,24.5,83
2016-01-08,08:00,0.7,150,25.1,86
2016-01-08,09:00,1.4,85,26.1,84
2016-01-08,10:00,1.8,154,27,80
2016-01-08,11:00,2.4,175,26.3,80
2016-01-08,12:00,2.5,214,26.6,75
2016-01-08,13:00,3,230,26.5,72
2016-01-08,14:00,2,303,28.2,55
2016-01-08,15:00,0.6,30,28.9,53
2016-01-08,16:00,1,99,29.9,53
2016-01-08,17:00,0.6,131,28.7,61
2016-01-08,18:00,1.5,154,28,63
2016-01-08,19:00,1.6,156,27,70
2016-01-08,20:00,2.5,158,26.8,72
2016-01-08,21:00,1.3,155,26.4,75
2016-01-08,22:00,0.8,147,26,79
2016-01-08,23:00,1.3,154,25.7,82
2016-01-09,00:00,1.4,126,25.4,83
2016-01-09,01:00,0.5,135,24.3,89
2016-01-09,02:00,0.6,110,24.3,90
2016-01-09,03:00,2.8,162,24.3,89
2016-01-09,04:00,1.2,152,24.4,86
2016-01-09,05:00,1,174,24.5,86
2016-01-09,06:00,1,103,24.4,86
2016-01-09,07:00,0.7,141,24.5,86
2016-01-09,08:00,1.7,168,24.8,89
2016-01-09,09:00,4.9,188,26.4,82
2016-01-09,10:00,4.2,170,27,79
2016-01-09,11:00,5.3,187,28,67
2016-01-09,12:00,5.4,195,28.6,62
2016-01-09,13:00,5,198,29.1,58
2016-01-09,14:00,3.9,199,29.6,54
2016-01-09,15:00,3.2,176,30.2,49
2016-01-09,16:00,3.7,166,30.2,46
2016-01-09,17:00,4.8,174,29.2,52
2016-01-09,18:00,4.2,170,28.2,61
2016-01-09,19:00,5.5,170,27.6,71
2016-01-09,20:00,5.5,173,27.2,77
2016-01-09,21:00,6.5,175,27.1,80
2016-01-09,22:00,6.6,177,27,81
2016-01-09,23:00,4.4,175,26.9,83
2016-01-10,00:00,2.3,182,26.8,84
2016-01-10,01:00,4.7,185,26.9,81
2016-01-10,02:00,3.9,181,26.8,81
2016-01-10,03:00,3.1,197,26.7,82
2016-01-10,04:00,1.2,172,26,85
2016-01-10,05:00,0.3,210,25.1,90
2016-01-10,06:00,3,207,25.6,87
2016-01-10,07:00,2.7,214,25.7,85
2016-01-10,08:00,2.9,262,26.1,80
2016-01-10,09:00,2.9,250,26.4,74
2016-01-10,10:00,3.6,260,27.9,59
2016-01-10,11:00,4,294,28.7,52
2016-01-10,12:00,3.2,292,29.5,47
2016-01-10,13:00,2.7,279,29.9,45
2016-01-10,14:00,2.5,247,30.4,44
2016-01-10,15:00,2.7,244,30.7,44
2016-01-10,16:00,1.6,219,31.3,42
2016-01-10,17:00,3.6,164,29.8,49
2016-01-10,18:00,3.8,172,28.8,53
2016-01-10,19:00,4.2,174,27.9,63
2016-01-10,20:00,5,179,27.3,76
2016-01-10,21:00,6,185,27.2,79
2016-01-10,22:00,5.2,182,27.2,78
2016-01-10,23:00,4,185,27.1,79
2016-01-11,00:00,4.8,193,27,79
2016-01-11,01:00,3.6,193,26.9,78
2016-01-11,02:00,2.4,198,26.7,79
2016-01-11,03:00,0.9,196,26.3,81
2016-01-11,04:00,0.8,41,25.5,86
2016-01-11,05:00,1.7,41,24.5,91
2016-01-11,06:00,1,76,24.3,92
2016-01-11,07:00,0.9,13,24.4,93
2016-01-11,08:00,1.3,315,25,92
2016-01-11,09:00,2.3,328,25.6,87
2016-01-11,10:00,2.1,324,26.3,81
2016-01-11,11:00,3,333,27.2,72
2016-01-11,12:00,3,330,28,62
2016-01-11,13:00,3,336,29.1,54
2016-01-11,14:00,2.3,311,29.7,50
2016-01-11,15:00,1.2,311,30.3,48
2016-01-11,16:00,1.6,2,30.4,47
2016-01-11,17:00,1.3,355,30.2,47
2016-01-11,18:00,0.6,132,29.3,54
2016-01-11,19:00,2.6,157,28.4,58
2016-01-11,20:00,2.7,159,27.9,60
2016-01-11,21:00,3.4,166,27.6,62
2016-01-11,22:00,3.7,182,27.4,64
2016-01-11,23:00,4,185,27,69
2016-01-12,00:00,2.9,194,26.9,70
2016-01-12,01:00,2.1,202,26.7,73
2016-01-12,02:00,0.4,288,26.1,77
2016-01-12,03:00,1.1,39,25.5,79
2016-01-12,04:00,2.9,44,24.7,80
2016-01-12,05:00,3.4,53,24,82
2016-01-12,06:00,3.8,68,23.7,86
2016-01-12,07:00,3.5,82,23.7,88
2016-01-12,08:00,2.2,77,24.5,88
2016-01-12,09:00,2,80,26.1,83
2016-01-12,10:00,1.5,89,27.5,75
2016-01-12,11:00,1.5,79,27.9,69
2016-01-12,12:00,0,29,29.2,61
2016-01-12,13:00,0.8,305,29.7,57
2016-01-12,14:00,2.1,54,29.8,56
2016-01-12,15:00,1.9,80,29.7,55
2016-01-12,16:00,2.5,90,29.8,54
2016-01-12,17:00,2.8,83,29.9,50
2016-01-12,18:00,1.2,144,30,39
2016-01-12,19:00,2.4,160,29.5,46
2016-01-12,20:00,1.2,187,29,49
2016-01-12,21:00,1.5,214,28.5,49
2016-01-12,22:00,3.2,214,27.9,54
2016-01-12,23:00,4.5,220,26.8,74
2016-01-13,00:00,5,215,26.4,79
2016-01-13,01:00,4.9,211,26.2,80
2016-01-13,02:00,4.3,205,26,82
2016-01-13,03:00,3.1,209,25.8,84
2016-01-13,04:00,0.6,98,25.5,86
2016-01-13,05:00,1.5,73,25,87
2016-01-13,06:00,3.8,62,23.8,87
2016-01-13,07:00,3.3,62,23.8,84
2016-01-13,08:00,2.1,61,24.7,85
2016-01-13,09:00,0.7,76,26.6,80
2016-01-13,10:00,0.9,143,28.3,71
2016-01-13,11:00,0.9,174,29.3,65
2016-01-13,12:00,0.9,215,29.8,63
2016-01-13,13:00,0.8,124,30,61
2016-01-13,14:00,0.5,71,30.5,59
2016-01-13,15:00,0.4,264,31,57
2016-01-13,16:00,2.3,189,30.9,56
2016-01-13,17:00,4.5,191,29.9,59
2016-01-13,18:00,4.4,197,29,64
2016-01-13,19:00,4.4,180,28.6,64
2016-01-13,20:00,4,174,28.2,66
2016-01-13,21:00,3.3,165,27.8,71
2016-01-13,22:00,3.2,163,27.3,76
2016-01-13,23:00,3.3,166,27.1,78
2016-01-14,00:00,3.6,172,26.9,82
2016-01-14,01:00,3.3,182,26.8,83
2016-01-14,02:00,2.9,183,26.7,84
2016-01-14,03:00,2.7,186,26.6,84
2016-01-14,04:00,0.6,170,26.4,85
2016-01-14,05:00,2.5,80,25.8,88
2016-01-14,06:00,3.7,73,24.8,93
2016-01-14,07:00,1.5,94,24.6,94
2016-01-14,08:00,0.9,78,25.8,93
2016-01-14,09:00,0.6,81,27.2,86
2016-01-14,10:00,1.1,216,28.3,76
2016-01-14,11:00,1.3,192,29.3,69
2016-01-14,12:00,3.7,175,30,62
2016-01-14,13:00,3.8,183,31,55
2016-01-14,14:00,5.6,199,31,54
2016-01-14,15:00,6.1,183,30.9,53
2016-01-14,16:00,5.9,187,30.8,54
2016-01-14,17:00,5.4,168,30.2,57
2016-01-14,18:00,4.5,184,28.9,65
2016-01-14,19:00,4.9,180,28.4,70
2016-01-14,20:00,4.5,183,28,76
2016-01-14,21:00,5.4,178,27.9,74
2016-01-14,22:00,5.4,175,27.6,79
2016-01-14,23:00,5,181,27.4,82
2016-01-15,00:00,5.3,186,27.3,82
2016-01-15,01:00,4.1,196,27.2,83
2016-01-15,02:00,4,188,27,84
2016-01-15,03:00,4.5,186,26.9,85
2016-01-15,04:00,3.2,205,26.8,85
2016-01-15,05:00,3.5,211,26.7,86
2016-01-15,06:00,2.5,219,26.5,88
2016-01-15,07:00,1.6,209,26.7,87
2016-01-15,08:00,0.5,127,27.7,83
2016-01-15,09:00,2.2,209,28.7,71
2016-01-15,10:00,2.8,221,29.4,65
2016-01-15,11:00,4.4,202,30.2,58
2016-01-15,12:00,4.8,186,30.9,56
2016-01-15,13:00,4.8,198,31,55
2016-01-15,14:00,5.3,205,31,55
2016-01-15,15:00,4.2,190,31.3,54
2016-01-15,16:00,3.7,172,31,57
2016-01-15,17:00,4.8,168,30.2,61
2016-01-15,18:00,5.9,162,28.7,70
2016-01-15,19:00,6.2,161,27.9,78
2016-01-15,20:00,6.5,164,27.5,77
2016-01-15,21:00,6.4,173,27.5,76
2016-01-15,22:00,6.2,180,27.4,76
2016-01-15,23:00,5.7,192,27.5,74
2016-01-16,00:00,4.6,199,27.5,76
2016-01-16,01:00,4.4,210,27.3,80
2016-01-16,02:00,3.2,215,27.2,83
2016-01-16,03:00,2.3,233,27.1,85
2016-01-16,04:00,2.2,252,26.6,88
2016-01-16,05:00,1.9,255,26.4,90
2016-01-16,06:00,0.7,175,26.3,89
2016-01-16,07:00,0.4,117,25.7,89
2016-01-16,08:00,1.5,165,26.4,85
2016-01-16,09:00,1.2,104,27.4,82
2016-01-16,10:00,1.4,120,28.2,77
2016-01-16,11:00,1.9,185,29.6,65
2016-01-16,12:00,4.8,184,29.4,63
2016-01-16,13:00,5.7,192,29.8,58
2016-01-16,14:00,5.1,182,30.3,56
2016-01-16,15:00,4.7,194,30,57
2016-01-16,16:00,3.8,186,29.7,60
2016-01-16,17:00,3.5,165,29.4,62
2016-01-16,18:00,3.1,172,28.9,65
2016-01-16,19:00,4.7,181,28.6,67
2016-01-16,20:00,5.8,186,28.1,73
2016-01-16,21:00,5.4,185,28,75
2016-01-16,22:00,6,183,27.7,79
2016-01-16,23:00,5.6,187,27.7,77
2016-01-17,00:00,4.9,187,27.7,75
2016-01-17,01:00,5.3,181,27.6,79
2016-01-17,02:00,4.4,187,27.4,81
2016-01-17,03:00,4.2,185,27.3,81
2016-01-17,04:00,3.3,204,27.3,79
2016-01-17,05:00,2.9,231,27,81
2016-01-17,06:00,2.9,239,26.6,85
2016-01-17,07:00,1.3,237,26.5,86
2016-01-17,08:00,2.6,204,27.1,83
2016-01-17,09:00,2.4,204,28.1,75
2016-01-17,10:00,2.5,194,29.4,66
2016-01-17,11:00,1.5,213,30.4,60
2016-01-17,12:00,3.1,208,30.9,57
2016-01-17,13:00,2.9,195,31.4,54
2016-01-17,14:00,2.9,196,31.9,52
2016-01-17,15:00,2.7,190,31.9,51
2016-01-17,16:00,3.7,167,31.6,53
2016-01-17,17:00,4.6,159,30.4,57
2016-01-17,18:00,4.7,159,29.1,64
2016-01-17,19:00,4.2,163,28.4,74
2016-01-17,20:00,5.8,173,28.3,74
2016-01-17,21:00,6,173,28.1,80
2016-01-17,22:00,5.6,177,27.8,80
2016-01-17,23:00,5.5,175,27.4,82
2016-01-18,00:00,4.1,184,27.3,83
2016-01-18,01:00,3.6,175,27.2,84
2016-01-18,02:00,3,168,27.2,85
2016-01-18,03:00,1.8,167,27.1,85
2016-01-18,04:00,0.5,145,26.6,88
2016-01-18,05:00,0.8,149,26.3,90
2016-01-18,06:00,0.6,123,25.6,92
2016-01-18,07:00,0.7,116,25.6,93
2016-01-18,08:00,0.5,118,26.2,92
2016-01-18,09:00,1.5,95,27.2,88
2016-01-18,10:00,2.6,79,27.7,84
2016-01-18,11:00,0.9,78,29.3,76
2016-01-18,12:00,0.8,42,30.7,68
2016-01-18,13:00,0.3,74,31.2,64
2016-01-18,14:00,1.4,78,31.3,63
2016-01-18,15:00,0.9,169,32.1,60
2016-01-18,16:00,2.6,181,32.3,56
2016-01-18,17:00,3.9,171,31.4,56
2016-01-18,18:00,3.9,161,29.8,62
2016-01-18,19:00,3.5,163,29,69
2016-01-18,20:00,4.6,178,28.6,76
2016-01-18,21:00,5.8,174,28.2,82
2016-01-18,22:00,5.7,178,27.9,84
2016-01-18,23:00,5.1,177,27.7,83
2016-01-19,00:00,3.4,184,27.5,84
2016-01-19,01:00,4.2,189,27.4,85
2016-01-19,02:00,3,166,27.3,86
2016-01-19,03:00,2.4,161,27.1,88
2016-01-19,04:00,1,156,26.9,89
2016-01-19,05:00,1.1,104,26.4,91
2016-01-19,06:00,1.3,106,25.6,94
2016-01-19,07:00,1.3,109,25.7,94
2016-01-19,08:00,1.2,112,26.6,92
2016-01-19,09:00,1.1,140,28.2,84
2016-01-19,10:00,2.2,178,29.2,75
2016-01-19,11:00,1.5,162,29.4,73
2016-01-19,12:00,6,162,27.2,76
2016-01-19,13:00,3,163,28.7,75
2016-01-19,14:00,4.8,173,29.9,66
2016-01-19,15:00,4.9,178,30.1,64
2016-01-19,16:00,5.3,178,30,62
2016-01-19,17:00,4.2,172,29.2,70
2016-01-19,18:00,5.2,180,28.6,76
2016-01-19,19:00,6.5,186,28.4,79
2016-01-19,20:00,5.9,178,28.5,75
2016-01-19,21:00,4.2,168,28.1,78
2016-01-19,22:00,4.2,167,27.9,81
2016-01-19,23:00,5.3,177,28,79
2016-01-20,00:00,4.3,170,27.8,80
2016-01-20,01:00,4.5,233,27.1,85
2016-01-20,02:00,0.8,161,26.3,83
2016-01-20,03:00,2.5,152,24.4,88
2016-01-20,04:00,5.8,164,23.7,92
2016-01-20,05:00,6.7,172,24.7,85
2016-01-20,06:00,3.3,186,25.1,84
2016-01-20,07:00,1.8,164,25.3,86
2016-01-20,08:00,0.6,134,25.8,88
2016-01-20,09:00,1.5,115,27.1,86
2016-01-20,10:00,2.3,163,28.6,77
2016-01-20,11:00,2.5,181,29.4,70
2016-01-20,12:00,4.2,195,30.1,65
2016-01-20,13:00,3.5,191,30.6,63
2016-01-20,14:00,4.6,190,30.8,62
2016-01-20,15:00,4.8,187,30.5,63
2016-01-20,16:00,4.8,185,30.3,66
2016-01-20,17:00,4.7,175,29.5,69
2016-01-20,18:00,3.9,180,28.7,74
2016-01-20,19:00,4.6,170,28.2,77
2016-01-20,20:00,5.5,173,27.9,80
2016-01-20,21:00,5.3,176,27.8,81
2016-01-20,22:00,3.3,176,27.6,82
2016-01-20,23:00,3.2,172,27.5,85
2016-01-21,00:00,2.6,164,27.3,86
2016-01-21,01:00,2.5,165,27.1,87
2016-01-21,02:00,1.7,179,27.2,87
2016-01-21,03:00,0.7,118,26.9,88
2016-01-21,04:00,1.2,87,26.1,92
2016-01-21,05:00,0.5,112,25.8,94
2016-01-21,06:00,0.6,204,25.5,92
2016-01-21,07:00,0.9,313,25.9,92
2016-01-21,08:00,1.3,339,26.2,92
2016-01-21,09:00,1.3,307,27,89
2016-01-21,10:00,1.2,306,28.4,80
2016-01-21,11:00,1.4,289,29,75
2016-01-21,12:00,1.1,280,30,69
2016-01-21,13:00,4.3,70,27.5,75
2016-01-21,14:00,2.9,60,28.8,73
2016-01-21,15:00,1.4,98,30,68
2016-01-21,16:00,4.9,186,30.8,60
2016-01-21,17:00,4.7,188,30.3,63
2016-01-21,18:00,6.4,188,29.1,70
2016-01-21,19:00,6.9,185,28.3,76
2016-01-21,20:00,5.4,191,28.1,78
2016-01-21,21:00,3.8,185,27.9,81
2016-01-21,22:00,5.9,180,27.7,84
2016-01-21,23:00,4.9,191,27.5,83
2016-01-22,00:00,4.8,186,27.5,83
2016-01-22,01:00,5.2,188,27.3,84
2016-01-22,02:00,4.9,197,27.1,85
2016-01-22,03:00,3.3,194,27,85
2016-01-22,04:00,3.4,198,26.9,85
2016-01-22,05:00,3.8,190,26.9,85
2016-01-22,06:00,3,189,26.9,84
2016-01-22,07:00,1.9,192,27.1,84
2016-01-22,08:00,3.3,202,27.9,77
2016-01-22,09:00,3.4,215,28.8,70
2016-01-22,10:00,2.7,217,30,64
2016-01-22,11:00,2.9,253,30.5,60
2016-01-22,12:00,2.3,248,31.6,54
2016-01-22,13:00,2,249,31.9,53
2016-01-22,14:00,3,224,31.9,54
2016-01-22,15:00,4.8,187,31.4,59
2016-01-22,16:00,4.1,186,31.1,58
2016-01-22,17:00,3.8,212,30.8,58
2016-01-22,18:00,4,212,30.1,58
2016-01-22,19:00,3.8,201,29.8,57
2016-01-22,20:00,2.8,187,29.4,57
2016-01-22,21:00,3.3,182,28.9,64
2016-01-22,22:00,4.2,186,28.4,72
2016-01-22,23:00,4,190,28.1,75
2016-01-23,00:00,4.5,191,27.8,77
2016-01-23,01:00,4.7,186,27.3,82
2016-01-23,02:00,4.4,185,27,84
2016-01-23,03:00,4.7,185,26.8,85
2016-01-23,04:00,0.7,318,26.5,87
2016-01-23,05:00,1,4,25.8,90
2016-01-23,06:00,1.4,39,25.4,93
2016-01-23,07:00,1.6,34,25.2,93
2016-01-23,08:00,1.1,10,25.9,92
2016-01-23,09:00,0.2,94,27.5,86
2016-01-23,10:00,1.2,214,28.6,77
2016-01-23,11:00,2.1,178,30.1,68
2016-01-23,12:00,1.2,159,31.4,61
2016-01-23,13:00,1,169,31.9,59
2016-01-23,14:00,1.3,130,32.2,58
2016-01-23,15:00,1.7,164,32.2,58
2016-01-23,16:00,1.5,171,32.3,57
2016-01-23,17:00,4.5,212,30.9,63
2016-01-23,18:00,4.8,218,29.5,69
2016-01-23,19:00,4.3,209,28.7,72
2016-01-23,20:00,3.4,208,28.4,76
2016-01-23,21:00,3.2,195,28.4,76
2016-01-23,22:00,4.1,187,28.2,78
2016-01-23,23:00,3.8,184,28,82
2016-01-24,00:00,4.8,185,27.7,84
2016-01-24,01:00,5.2,188,27.6,84
2016-01-24,02:00,4.4,190,27.5,83
2016-01-24,03:00,4.2,198,27.4,83
2016-01-24,04:00,1.5,182,27.3,83
2016-01-24,05:00,4.9,79,25.6,87
2016-01-24,06:00,4.9,80,24.3,88
2016-01-24,07:00,3.5,78,23.9,91
2016-01-24,08:00,4.6,91,24.1,91
2016-01-24,09:00,6.8,84,23.6,83
2016-01-24,10:00,6.4,84,23.7,77
2016-01-24,11:00,5.1,90,23.5,71
2016-01-24,12:00,4.1,99,24,68
2016-01-24,13:00,7,74,22.8,73
2016-01-24,14:00,6.7,76,22.9,73
2016-01-24,15:00,6.3,72,23.2,71
2016-01-24,16:00,4.7,41,22.7,74
2016-01-24,17:00,7.3,67,22.6,66
2016-01-24,18:00,5.4,67,21.7,67
2016-01-24,19:00,4.5,22,19.4,72
2016-01-24,20:00,3.9,18,18.3,73
2016-01-24,21:00,4.5,1,17.4,75
2016-01-24,22:00,3.9,5,17,74
2016-01-24,23:00,3,10,16.8,72
2016-01-25,00:00,2.7,350,16.6,72
2016-01-25,01:00,2.8,350,16.5,71
2016-01-25,02:00,3.6,355,16.1,70
2016-01-25,03:00,3.9,357,15.6,70
2016-01-25,04:00,3.1,11,15.2,73
2016-01-25,05:00,2.6,2,14.9,77
2016-01-25,06:00,2.4,9,14.8,80
2016-01-25,07:00,3,354,14.7,81
2016-01-25,08:00,4.3,5,14.3,79
2016-01-25,09:00,3.7,357,14.8,73
2016-01-25,10:00,3.9,360,15,67
2016-01-25,11:00,4.6,344,15.3,66
2016-01-25,12:00,4.8,353,15.6,64
2016-01-25,13:00,4.8,356,16.3,62
2016-01-25,14:00,5.1,3,17.2,59
2016-01-25,15:00,5.8,356,17.5,58
2016-01-25,16:00,6.4,360,17.6,58
2016-01-25,17:00,7.5,355,16.8,60
2016-01-25,18:00,7.6,4,16.4,60
2016-01-25,19:00,6.5,1,16.1,62
2016-01-25,20:00,6.1,356,15.6,65
2016-01-25,21:00,6.4,357,15.5,66
2016-01-25,22:00,5.9,3,15.5,65
2016-01-25,23:00,6.1,3,15.6,64
2016-01-26,00:00,5.7,359,15.7,63
2016-01-26,01:00,5.3,349,15.5,66
2016-01-26,02:00,5.7,357,15.1,66
2016-01-26,03:00,6.1,356,14.9,65
2016-01-26,04:00,5.8,1,14.9,65
2016-01-26,05:00,6,1,14.9,63
2016-01-26,06:00,6,4,14.8,62
2016-01-26,07:00,5,359,14.7,63
2016-01-26,08:00,5.3,351,15.1,63
2016-01-26,09:00,5.4,353,15.8,62
2016-01-26,10:00,5.3,356,17,59
2016-01-26,11:00,4.7,356,18.2,57
2016-01-26,12:00,4,4,19.5,54
2016-01-26,13:00,4.3,352,20.5,52
2016-01-26,14:00,4.7,350,20.9,52
2016-01-26,15:00,5.3,352,21,52
2016-01-26,16:00,6,352,20.7,53
2016-01-26,17:00,6.9,354,20.3,54
2016-01-26,18:00,6.7,359,19.8,56
2016-01-26,19:00,6.7,355,19,58
2016-01-26,20:00,6.9,346,18.5,62
2016-01-26,21:00,7.3,338,16.5,79
2016-01-26,22:00,6.2,336,15.9,80
2016-01-26,23:00,5.7,340,15.4,83
2016-01-27,00:00,5.7,337,15.1,84
2016-01-27,01:00,5.5,336,14.8,86
2016-01-27,02:00,5.4,337,14.6,87
2016-01-27,03:00,5.5,335,14.7,88
2016-01-27,04:00,5.8,337,14.8,87
2016-01-27,05:00,5.3,335,14.7,87
2016-01-27,06:00,5,334,14.6,87
2016-01-27,07:00,5.4,345,14.7,87
2016-01-27,08:00,4.2,345,15.5,84
2016-01-27,09:00,4.7,338,16.8,79
2016-01-27,10:00,5.1,342,18.1,73
2016-01-27,11:00,3.9,353,19.8,66
2016-01-27,12:00,3.4,337,21.4,61
2016-01-27,13:00,4.1,332,22.3,60
2016-01-27,14:00,5.2,343,22.8,59
2016-01-27,15:00,3.9,353,23.8,57
2016-01-27,16:00,3.6,359,24.4,54
2016-01-27,17:00,3,357,24.5,54
2016-01-27,18:00,3.9,337,23.8,57
2016-01-27,19:00,4.4,337,23.2,59
2016-01-27,20:00,4,342,22.7,61
2016-01-27,21:00,5.1,342,22,62
2016-01-27,22:00,6,342,20.7,69
2016-01-27,23:00,5.1,347,20,72
2016-01-28,00:00,5.3,349,19.5,73
2016-01-28,01:00,4.8,353,19.1,75
2016-01-28,02:00,4.7,336,18.6,76
2016-01-28,03:00,5.2,330,17.7,82
2016-01-28,04:00,4.9,327,17.3,84
2016-01-28,05:00,5.2,335,17.1,84
2016-01-28,06:00,3.8,344,17,84
2016-01-28,07:00,3.4,351,17.4,82
2016-01-28,08:00,2.9,348,18.5,79
2016-01-28,09:00,3.7,330,19.3,77
2016-01-28,10:00,3,337,20.8,72
2016-01-28,11:00,3.2,334,22.7,66
2016-01-28,12:00,2.5,340,24.6,61
2016-01-28,13:00,2.3,333,26.1,57
2016-01-28,14:00,2.2,331,27.2,54
2016-01-28,15:00,2.4,343,27.9,53
2016-01-28,16:00,2.1,343,28.1,53
2016-01-28,17:00,2.3,346,27.8,54
2016-01-28,18:00,2.6,351,27.2,56
2016-01-28,19:00,1.4,337,27,58
2016-01-28,20:00,1.4,347,26.9,57
2016-01-28,21:00,2.6,339,26.7,57
2016-01-28,22:00,3.6,341,25.7,60
2016-01-28,23:00,3,346,24.7,64
2016-01-29,00:00,2.6,349,24,66
2016-01-29,01:00,2.7,355,23.4,66
2016-01-29,02:00,2.5,352,22.9,68
2016-01-29,03:00,3.4,349,22.6,69
2016-01-29,04:00,3.8,358,22.4,70
2016-01-29,05:00,3.5,5,22.4,70
2016-01-29,06:00,3.5,1,22.4,71
2016-01-29,07:00,1.8,7,22.8,70
2016-01-29,08:00,1.4,356,23.7,69
2016-01-29,09:00,0.5,65,26.7,60
2016-01-29,10:00,0.5,248,28.5,55
2016-01-29,11:00,1.5,243,29.3,54
2016-01-29,12:00,2.4,236,30.1,51
2016-01-29,13:00,2.6,244,30.8,49
2016-01-29,14:00,2.8,212,31.4,48
2016-01-29,15:00,2.6,240,31.8,48
2016-01-29,16:00,3.2,210,31.6,47
2016-01-29,17:00,2.7,208,31.4,48
2016-01-29,18:00,3.5,199,30.6,50
2016-01-29,19:00,3.1,175,29.8,54
2016-01-29,20:00,3.5,193,28.9,60
2016-01-29,21:00,3.9,202,28.2,64
2016-01-29,22:00,4,199,27.8,67
2016-01-29,23:00,4.9,206,27.3,72
2016-01-30,00:00,5.5,203,26.9,76
2016-01-30,01:00,5.8,201,26.5,79
2016-01-30,02:00,5.3,203,26.4,81
2016-01-30,03:00,2,194,26.1,84
2016-01-30,04:00,1.5,45,25.9,86
2016-01-30,05:00,1.9,58,25.4,88
2016-01-30,06:00,2.7,76,24.7,88
2016-01-30,07:00,1.7,98,24.6,89
2016-01-30,08:00,0.5,138,25.6,89
2016-01-30,09:00,1.5,163,26.9,86
2016-01-30,10:00,2.6,186,28.3,75
2016-01-30,11:00,3.5,204,29.1,68
2016-01-30,12:00,3.2,210,30.1,62
2016-01-30,13:00,4.2,208,30.6,58
2016-01-30,14:00,4.8,213,30.8,56
2016-01-30,15:00,4.5,216,30.9,55
2016-01-30,16:00,3.9,185,30.9,55
2016-01-30,17:00,4.1,167,30.2,57
2016-01-30,18:00,3.8,170,29.2,62
2016-01-30,19:00,3.8,176,28.3,70
2016-01-30,20:00,4.2,182,27.8,74
2016-01-30,21:00,5.5,185,27.3,82
2016-01-30,22:00,4.2,184,27.2,82
2016-01-30,23:00,6,186,27.2,83
2016-01-31,00:00,5.2,204,26.9,86
2016-01-31,01:00,5.4,204,26.8,87
2016-01-31,02:00,5.2,197,26.5,87
2016-01-31,03:00,3.8,190,26.5,86
2016-01-31,04:00,4.3,175,26.5,85
2016-01-31,05:00,3.1,168,26.3,87
2016-01-31,06:00,1.5,169,26.2,88
2016-01-31,07:00,0.4,91,26.2,89
2016-01-31,08:00,0.6,145,27,88
2016-01-31,09:00,2.6,170,27.8,81
2016-01-31,10:00,2.5,195,28.9,71
2016-01-31,11:00,2.2,207,30,63
2016-01-31,12:00,2.6,201,30.7,59
2016-01-31,13:00,3.6,180,31.3,57
2016-01-31,14:00,4.7,178,31.4,54
2016-01-31,15:00,4.7,183,31.3,53
2016-01-31,16:00,4.4,177,31,56
2016-01-31,17:00,4.9,184,30.1,60
2016-01-31,18:00,5.3,184,28.8,67
2016-01-31,19:00,5.8,182,27.9,76